DW2465 Weather Reports


Display with metric or nautical units.
time (UTC)temp
F
wind
direction
speed
MPH
gust
MPH
rain 1hr
in
rain 24hr
in
rain mn
in
humidity
%
barometer
mb
20181215003055 31 193 3.0 7.0 0.00 0.00 0.00 83 1023.3
20181215001656 32 204 3.0 7.0 0.00 0.00 0.00 82 1023.2
20181215000133 32 186 3.0 5.0 0.00 0.00 0.00 81 1023.3
20181214234604 33 178 1.0 3.0 0.00 0.00 0.00 79 1023.4
20181214233132 33 178 1.0 3.0 0.00 0.00 0.00 78 1023.2
20181214231602 34 172 1.0 3.0 0.00 0.00 0.00 77 1023.3
20181214230119 35 171 2.0 5.0 0.00 0.00 0.00 74 1023.2
20181214224606 35 209 1.0 3.0 0.00 0.00 0.00 73 1023.0
20181214223102 36 204 2.0 5.0 0.00 0.00 0.00 71 1023.0
20181214221625 37 188 2.0 4.0 0.00 0.00 0.00 69 1023.3
20181214220108 38 207 1.0 5.0 0.00 0.00 0.00 69 1023.1
20181214214610 38 193 4.0 6.0 0.00 0.00 0.00 68 1023.0
20181214213037 38 201 1.0 6.0 0.00 0.00 0.00 68 1023.0
20181214211550 38 213 4.0 8.0 0.00 0.00 0.00 67 1022.9
20181214210047 37 231 2.0 6.0 0.00 0.00 0.00 68 1022.6
20181214204531 38 214 3.0 7.0 0.00 0.00 0.00 66 1022.7
20181214203044 37 186 4.0 10.0 0.00 0.00 0.00 67 1022.6
20181214201546 37 211 6.0 9.0 0.00 0.00 0.00 66 1022.5
20181214200042 36 184 3.0 9.0 0.00 0.00 0.00 67 1022.5
20181214194518 36 200 5.0 9.0 0.00 0.00 0.00 67 1022.5
20181214193019 36 202 6.0 9.0 0.00 0.00 0.00 67 1022.4
20181214191533 35 254 5.0 10.0 0.00 0.00 0.00 68 1022.5
20181214190012 35 190 5.0 10.0 0.00 0.00 0.00 69 1022.7
20181214184509 35 240 6.0 9.0 0.00 0.00 0.00 69 1022.6
20181214183033 34 200 4.0 8.0 0.00 0.00 0.00 70 1022.5
20181214181503 34 221 3.0 10.0 0.00 0.00 0.00 71 1022.6
20181214180150 33 244 7.0 10.0 0.00 0.00 0.00 70 1023.0
20181214174644 32 244 4.0 9.0 0.00 0.00 0.00 73 1023.0
20181214173126 32 261 5.0 9.0 0.00 0.00 0.00 73 1023.1
20181214171723 31 262 6.0 14.0 0.00 0.00 0.00 76 1023.3
20181214170101 31 232 5.0 10.0 0.00 0.00 0.00 79 1023.4
20181214164615 30 214 5.0 11.0 0.00 0.00 0.00 82 1023.4
20181214163153 29 201 3.0 9.0 0.00 0.00 0.00 84 1023.7
20181214161549 28 205 5.0 10.0 0.00 0.00 0.00 87 1023.9
20181214160107 27 210 5.0 9.0 0.00 0.00 0.00 88 1023.5
20181214154602 26 205 4.0 9.0 0.00 0.00 0.00 89 1023.4
20181214153047 26 205 6.0 10.0 0.00 0.00 0.00 89 1023.1
20181214151554 25 185 7.0 10.0 0.00 0.00 0.00 90 1023.1
20181214150043 25 216 6.0 11.0 0.00 0.00 0.00 91 1022.9
20181214144612 24 211 6.0 12.0 0.00 0.00 0.00 92 1022.6
20181214143021 24 189 3.0 11.0 0.00 0.00 0.00 93 1022.3
20181214141559 23 209 6.0 10.0 0.00 0.00 0.00 94 1022.5
20181214140102 23 212 3.0 8.0 0.00 0.00 0.00 94 1022.7
20181214134521 23 180 4.0 9.0 0.00 0.00 0.00 94 1022.6
20181214133041 22 189 4.0 7.0 0.00 0.00 0.00 94 1022.8
20181214131535 22 194 3.0 8.0 0.00 0.00 0.00 94 1022.9
20181214130038 22 184 4.0 6.0 0.00 0.00 0.00 94 1023.0
20181214124510 22 194 2.0 5.0 0.00 0.00 0.00 94 1023.0
20181214123022 22 184 3.0 7.0 0.00 0.00 0.00 94 1022.5
20181214121506 22 223 2.0 5.0 0.00 0.00 0.00 94 1022.6
20181214120005 22 163 3.0 5.0 0.00 0.00 0.00 94 1022.6
20181214114508 22 163 3.0 5.0 0.00 0.00 0.00 94 1022.7
20181214113001 23 171 2.0 4.0 0.00 0.00 0.00 94 1022.6
20181214111648 23 186 1.0 3.0 0.00 0.00 0.00 94 1022.6
20181214110223 23 175 2.0 4.0 0.00 0.00 0.00 94 1022.7
20181214104736 23 188 3.0 6.0 0.00 0.00 0.00 94 1022.4
20181214103247 23 165 2.0 7.0 0.00 0.00 0.00 94 1022.5
20181214101638 23 200 3.0 6.0 0.00 0.00 0.00 95 1022.5
20181214100249 23 179 2.0 7.0 0.00 0.00 0.00 95 1022.7
20181214094605 23 179 2.0 6.0 0.00 0.00 0.00 94 1022.5
20181214093118 23 175 3.0 7.0 0.00 0.00 0.00 94 1022.9
20181214091607 23 166 4.0 6.0 0.00 0.00 0.00 94 1022.9
20181214090111 24 175 1.0 5.0 0.00 0.00 0.00 95 1022.9
20181214084611 24 168 4.0 7.0 0.00 0.00 0.00 95 1022.7
20181214083055 24 169 2.0 6.0 0.00 0.00 0.00 95 1022.9
20181214081623 23 161 4.0 7.0 0.00 0.00 0.00 95 1022.6
20181214080115 23 157 3.0 8.0 0.00 0.00 0.00 95 1022.9
20181214074554 23 168 4.0 8.0 0.00 0.00 0.00 94 1022.9
20181214073149 23 165 3.0 5.0 0.00 0.00 0.00 94 1022.9
20181214071556 24 169 2.0 7.0 0.00 0.00 0.00 95 1022.9
20181214070050 24 175 3.0 7.0 0.00 0.00 0.00 95 1022.9
20181214064611 24 196 3.0 5.0 0.00 0.00 0.00 95 1022.8
20181214063245 24 175 0.0 4.0 0.00 0.00 0.00 95 1022.8
20181214061542 25 170 3.0 7.0 0.00 0.00 0.00 95 1022.8
20181214060102 25 175 2.0 7.0 0.00 0.00 0.00 95 1022.8
20181214054602 25 184 3.0 6.0 0.00 0.00 0.00 95 1022.7
20181214053028 26 158 1.0 5.0 0.00 0.00 0.00 95 1022.7
20181214051529 26 236 1.0 4.0 0.00 0.00 0.00 95 1022.6
20181214050030 27 217 2.0 6.0 0.00 0.00 0.00 95 1022.5
20181214044558 27 209 2.0 6.0 0.00 0.00 0.00 95 1022.2
20181214043043 27 205 1.0 4.0 0.00 0.00 0.00 95 1022.3
20181214041548 27 209 2.0 7.0 0.00 0.00 0.00 95 1022.0
20181214040107 28 177 3.0 7.0 0.00 0.00 0.00 95 1021.9
20181214034532 28 183 1.0 5.0 0.00 0.00 0.00 95 1022.0
20181214033025 28 202 2.0 6.0 0.00 0.00 0.00 95 1022.2
20181214031548 28 211 3.0 7.0 0.00 0.00 0.00 95 1022.0
20181214030027 29 223 0.0 3.0 0.00 0.00 0.00 95 1021.9
20181214024521 29 223 2.0 5.0 0.00 0.00 0.00 95 1022.0
20181214023039 29 202 1.0 6.0 0.00 0.00 0.00 94 1021.8
20181214021519 30 192 0.0 0.0 0.00 0.00 0.00 94 1021.6
20181214020046 30 197 4.0 8.0 0.00 0.00 0.00 94 1021.7
20181214014543 30 211 0.0 5.0 0.00 0.00 0.00 93 1021.6
20181214013030 30 219 0.0 0.0 0.00 0.00 0.00 93 1021.5
20181214011519 30 218 0.0 0.0 0.00 0.00 0.00 93 1021.4
20181214010037 30 218 0.0 0.0 0.00 0.00 0.00 93 1021.4
20181214004535 30 250 0.0 4.0 0.00 0.00 0.00 92 1021.2